STARLINK-11173 [DTC]

Last updated on Sat Aug 03 2024 00:02:04 GMT+0000 (Coordinated Universal Time)

1 60192U 24124K 24215.16494472 -.00006475 00000+0 -35630-4 0 9996 2 60192 53.1587 163.0540 0001383 115.9779 244.1385 15.76702846 4728
UTC large
Height (km)
Speed (km/s)
/
Latitude / Longitude
Inclination (degrees)
Orbital Period (minutes)
Azimuth
Elevation
Range (km)
Doppler Factor

Next 0 passes for location: London (51.5072 / 0.1276)

Sorry there are no passes over London.